Погода Улан-Удэ

Погода Улан-Удэ : погода сейчас, прогноз погоды и архив. Всё, что Вы хотите узнать о погоде Улан-Удэ!

Поиск расширенной информации на нашем сайте:

Другие новости

Новости СМИ2

Главная страница сайта

Новости сайта

03.07.2017

Напоминаем, что на нашем специализированном сайте Метеоцентр.Азия вы можете получить высокодетализированные автоматические прогнозы погоды по пунктам России, СНГ и мира в авиационном формате (включающие направление и скорость ветра, видимость, явления погоды, количество и форму облачности, нижнюю и верхнюю границу облачности).


Погода Улан-Удэ - сегодня

Время (UTC), дата Ветер
(°,м/с) 
Видим.   Явления Облачность Т
(°С)
Тd
(°С)
f(%) Тe
(°С)
Pmin
(гПа)
dP
(гПа)
Po
(мм)
O2
(г/м3)
Тmin Tmax R s Состояние
почвы
15 14.08.18 090 (В) 5{10}  20000 м    10/3 1000 м кучево-дожд., средняя, верхняя 
[Cb cap|Ac trans|Ci sp]
+25 +12.1 45 +30  1004.3  -0.2  711  260           
21 14.08.18 030 (СВ) 2{10}  20000 м    10/5 1000 м кучево-дожд., средняя, верхняя 
[Cb cap|Ac trans|Ci sp]
+22.6 +12.1 51 +28  1007.6  1.7  713  263           
00 15.08.18 340 (С) 20000 м    10/3 1000 м кучево-дожд., средняя, верхняя 
[Cb cap|Ac trans|Ci sp]
+19.8 +13.7 68 +28  1010.6  2.2  714  266  +19.6        сухая 
03 15.08.18 350 (С) 20000 м    10/10 1000 м кучево-дожд. 
[Cb cap]
+19.2 +12.6 66 +26  1013.1  2.2  716  267  +19.2         
06 15.08.18 330 (СЗ) 20000 м    10/10 1000 м кучево-дожд. 
[Cb cap]
+19 +12.1 64 +25  1014.1  0.9  717  268           
09 15.08.18 210 (ЮЗ) 20000 м  {ливн. осадки}  10/10 1000 м кучево-дожд. 
[Cb cap]
+17.4 +14.4 83 +27  1014.5  0.9  717  268           
12 15.08.18 030 (СВ) 20000 м  {ливн. осадки}  10/8 1000 м кучево-дожд., верхняя 
[Cb cap|Ci fib]
+17.6 +14.4 82 +28  1014.6  0.1  717  268    +21.4  0.6     
15 15.08.18 070 (В) 20000 м    8/8 1000 м 
[Sc diur, vesp]
+17.1 +14.3 84 +28  1015  0.3  717  269           
18 15.08.18 340 (С) 20000 м    10/10 1000 м кучево-дожд. 
[Cb cap]
+16.5 +11.3 71 +21  1015.5  0.2  717  270           
21 15.08.18 330 (СЗ) 20000 м    10/8 1000 м кучево-дожд., верхняя 
[Cb cap|Ci sp]
+15.2 +9.4 68 +16  1015.7  0.1  717  272           
00 16.08.18 320 (СЗ) 20000 м  в посл. час ливневой дождь  10/10 600 м кучево-дожд. 
[Cb cap]
+14.1 +8.6 69 +15  1016  0.1  717  273  +13.7    0.7    влажная 
03 16.08.18 310 (СЗ) 20000 м  в посл. час ливневой дождь  10/9 600 м кучево-дожд., верхняя 
[Cb cap|Ci sp]
+15.6 +8.3 62 +16  1015.4  -0.3  717  272           
06 16.08.18 330 (СЗ) 20000 м  {ливн. осадки}  9/3 1000 м кучево-дожд., средняя, верхняя 
[Cb cap|Ac cast|Ci fib]
+18.8 +5.9 43 +19  1014.1  -0.6  717  269           
09 16.08.18 340 (С) 20000 м    3/3 1000 м 
[Sc diur, vesp]
+21.1 +4.9 35 +21  1012.9  -0.7  716  267           
15 16.08.18 250 (З) 20000 м    3/0 средняя, верхняя 
[Ac trans|Ci fib]
+13 +8.6 75 +14  1015.2  0.3  716  274           
18 16.08.18 250 (З) 20000 м    10/9 1000 м средняя 
[Sc|Ac und]
+11.9 +8.4 79 +13  1014.7  -0.7  716  275           
21 16.08.18 270 (З) 20000 м    1/1 1000 м 
[Sc]
+10.1 +8.9 92 +12  1014.4  -0.6  716  276           
00 17.08.18 260 (З) 20000 м    1/1 1000 м 
[Sc]
+12.8 +8.7 76 +14  1013.6  -0.2  715  274  +9.2        влажная 
03 17.08.18 240 (ЮЗ) 20000 м    4/4 1000 м 
[Cu Sc]
+21.3 +8 42 +21  1010  -1.8  714  265           
06 17.08.18 330 (СЗ) 3{10}  20000 м    6/6 1000 м 
[Cu med, cong]
+24.2 +4 27 +24  1007.3  -2  713  263           
09 17.08.18 310 (СЗ) 20000 м    4/3 1000 м верхняя 
[Cu hum|Ci fib]
+25.2 +5.5 28 +25  1005.9  -1.1  712  262           
12 17.08.18 280 (З) 3{10}  20000 м    3/0 верхняя 
[Ci fib]
+21.5 +5.4 35 +22  1006.7  712  265    +26       
15 17.08.18 250 (З) 20000 м    ясно 
+15.1 +7 58 +15  1008  0.1  712  271           
18 17.08.18 280 (З) 20000 м    ясно 
+12.1 +7.6 74 +13  1008.5  -0.2  712  273           
21 17.08.18 280 (З) 20000 м    ясно 
+9.9 +7.2 83 +11  1008.4  -0.5  711  275           
Время (UTC), дата Ветер
(°,м/с) 
Видим.   Явления Облачность Т
(°С)
Тd
(°С)
f(%) Тe
(°С)
Pmin
(гПа)
dP
(гПа)
Po
(мм)
O2
(г/м3)
Тmin Tmax R s Состояние
почвы

Для получения пояснительной информации подведите курсор к названию столбца.

ПОГОДА Улан-Удэ - архив

Всё, что Вы хотите узнать о погоде Улан-Удэ - удобно и подробно!

Выберите нужную дату (начиная с 1 января 2015* года) и нажмите кнопку "Найти".
Будут отображены архивные сводки погоды по пункту Улан-Удэ, начиная с указанной даты.


Отображать данные в формате CSV (для использования в таблицах Excel)


Внимание! Наш архив погоды предназначен исключительно для личного некоммерческого использования в познавательных целях. Если Вам необходимы официальные справки о состоянии погоды (для производственных, юридических, коммерческих и т.п. целей), обращайтесь в органы Росгидромета.

*Примечание: данная дата относится к архиву по метеостанциям СССР (Россия, СНГ, Балтия).
Архив по метеостанциям Зарубежной Европы и Азии (кроме Китая) хранится 10 дней, по другим регионам земного шара (Китай, Африка, Америка, Австралия, Океания) - 1 день.

Улан-Удэ - район местоположения метеостанции


Название, широта, долгота, высота метеостанции:
Улан-Удэ (город) 51.8°ш. 107.5°д. 530 м над ур. моря [Российская Федерация]

Дополнительная информация

В oтличие oт бoльшинства пoгoдных сайтoв мы публикуем пoдрoбную метеoинфoрмацию в детальнoм прoфессиoнальнoм фoрмате.

Характеристики температуры и влажнoсти вoздуха измеряются на высoте 2 м в тени вдали oт зданий и деревьев.
Скoрoсть ветра измеряется на высoте 10 м (на урoвне рoста челoвека скoрoсть ветра ниже в 1.5-2 раза). Если метеoстанция нахoдится в гoрoде или в лесу, тo скoрoсть ветра занижена на 2-4 м/с пo сравнению с oткрытым местoм. Скoрoсть ветра над акватoриями крупных рек и oзёр, а также на вершинах хoлмoв на 2-5 м/с выше, чем в oбычных услoвиях.
Атмoсфернoе давление в разных тoчках местнoсти мoжет значительнo oтличаться oт давления на метеoстанции, в зависимoсти oт услoвий рельефа (при пoдъёме на 10 м давление пoнижается примернo на 1 мм рт.ст.).